Regional Weather Roundup
Issued by NWS

Home | Current Version | Previous Version | Graphics & Text | Print | Product List | Glossary On
Versions: 1 2 3 4 5 6 7 8 9 10 11 12 13 14 15 16 17 18 19 20 21 22 23 24 25 26 27 28 29 30 31 32 33 34 35 36 37 38 39 40 41 42 43 44 45 46 47 48 49 50
000
ASUS43 KLMK 031510
RWRKY
KENTUCKY REGIONAL WEATHER ROUNDUP
NATIONAL WEATHER SERVICE LOUISVILLE KY
1000 AM EST SAT DEC 03 2016

NOTE "FAIR" INDICATES FEW OR NO CLOUDS BELOW 12,000 FEET
WITH NO SIGNIFICANT WEATHER AND/OR OBSTRUCTIONS TO VISIBILITY.

KYZ001>023-026-027-061>063-070>075-031600-
WESTERN AND SOUTH CENTRAL KENTUCKY

CITY           SKY/WX    TMP DP  RH WIND       PRES   REMARKS
PADUCAH        CLOUDY    40  32  73 E6        30.36R
HENDERSON      CLOUDY    37  30  75 CALM      30.38R
OWENSBORO      MOSUNNY   38  37  97 CALM      30.38F
HOPKINSVILLE   CLOUDY    38  32  78 NE7       30.35S WCI  33
BOWLING GREEN  MOSUNNY   37  33  85 E5        30.36F WCI  33
GLASGOW        CLOUDY    36  36 100 CALM      30.36F FOG
$$

KYZ024-025-028>034-038-045-046-053-031600-
NORTH CENTRAL KENTUCKY

CITY           SKY/WX    TMP DP  RH WIND       PRES   REMARKS
LOUISVILLE/SDF CLOUDY    43  29  57 N6        30.37F
LOUISVILLE/LOU CLOUDY    42  31  64 NE5       30.38F
FORT KNOX      CLOUDY    41  29  64 N5        30.34F
$$

KYZ035>037-039>044-047>052-055>060-089>105-031600-
NORTHEAST KENTUCKY

CITY           SKY/WX    TMP DP  RH WIND       PRES   REMARKS
LEXINGTON      CLOUDY    40  32  73 N6        30.38R
COVINGTON      CLOUDY    38  34  85 CALM      30.37R
FRANKFORT      CLOUDY    40  31  70 NW3       30.37S
$$

KYZ054-064>069-076>088-106>120-031600-
SOUTHEAST KENTUCKY

CITY           SKY/WX    TMP DP  RH WIND       PRES   REMARKS
JACKSON        CLOUDY    38  30  73 CALM      30.36R
LONDON         CLOUDY    37  31  78 CALM      30.36R
SOMERSET       CLOUDY    34  34 100 CALM      30.40R
MIDDLESBORO    CLOUDY    35  32  88 CALM      30.37S
MONTICELLO     CLOUDY    36  34  92 VRB7      30.39R WCI  30
$$





USA.gov is the U.S. government's official web portal to all federal, state and local government web resources and services.